| time (UTC) | temp F | wind direction | speed MPH | gust MPH | rain 1hr in | rain 24hr in | rain mn in | humidity % | barometer mb |
| 20260904203022 | 64 | 0.0 | 3.0 | 0.00 | 0.09 | 0.00 | 70 | 1013.2 | |
| 20260904200021 | 63 | 0.0 | 2.0 | 0.00 | 0.09 | 0.00 | 74 | 1013.2 | |
| 20260904193016 | 62 | 0.0 | 3.0 | 0.00 | 0.09 | 0.00 | 77 | 1013.1 | |
| 20260904190021 | 61 | 0.0 | 4.0 | 0.00 | 0.09 | 0.00 | 80 | 1013.3 | |
| 20260904183021 | 60 | 0.0 | 2.0 | 0.00 | 0.09 | 0.00 | 80 | 1013.3 | |
| 20260904180016 | 59 | 0.0 | 2.0 | 0.00 | 0.09 | 0.00 | 87 | 1013.3 | |
| 20260904173021 | 57 | 0.0 | 1.0 | 0.00 | 0.09 | 0.00 | 90 | 1013.4 | |
| 20260904170021 | 57 | 0.0 | 2.0 | 0.00 | 0.09 | 0.00 | 92 | 1013.2 | |
| 20260904163024 | 56 | 0.0 | 1.0 | 0.00 | 0.09 | 0.00 | 94 | 1013.4 | |
| 20260904160022 | 55 | 0.0 | 0.0 | 0.00 | 0.09 | 0.00 | 95 | 1013.1 | |
| 20260904153016 | 55 | 0.0 | 0.0 | 0.00 | 0.09 | 0.00 | 96 | 1013.0 | |
| 20260904150024 | 53 | 0.0 | 0.0 | 0.00 | 0.09 | 0.00 | 95 | 1012.7 | |
| 20260904143016 | 53 | 0.0 | 0.0 | 0.00 | 0.09 | 0.00 | 95 | 1012.4 | |
| 20260904140024 | 53 | 0.0 | 0.0 | 0.00 | 0.10 | 0.00 | 95 | 1012.2 | |
| 20260904133021 | 52 | 0.0 | 0.0 | 0.00 | 0.10 | 0.00 | 95 | 1011.9 | |
| 20260904130015 | 53 | 0.0 | 0.0 | 0.00 | 0.13 | 0.00 | 95 | 1011.5 | |
| 20260904123021 | 53 | 0.0 | 0.0 | 0.00 | 0.13 | 0.00 | 95 | 1011.6 | |
| 20260904120017 | 53 | 0.0 | 0.0 | 0.00 | 0.13 | 0.00 | 95 | 1011.1 | |
| 20260904113022 | 53 | 0.0 | 0.0 | 0.00 | 0.13 | 0.00 | 94 | 1010.8 | |
| 20260904110018 | 53 | 0.0 | 0.0 | 0.00 | 0.13 | 0.00 | 94 | 1010.7 | |
| 20260904103022 | 54 | 0.0 | 0.0 | 0.00 | 0.13 | 0.00 | 94 | 1010.7 | |
| 20260904100018 | 54 | 0.0 | 0.0 | 0.00 | 0.14 | 0.00 | 94 | 1010.6 | |
| 20260904093017 | 54 | 0.0 | 0.0 | 0.00 | 0.14 | 0.00 | 94 | 1010.7 | |
| 20260904090017 | 54 | 0.0 | 1.0 | 0.00 | 0.14 | 0.00 | 94 | 1010.6 | |
| 20260904083022 | 54 | 0.0 | 1.0 | 0.00 | 0.14 | 0.00 | 94 | 1010.2 | |
| 20260904080017 | 54 | 0.0 | 0.0 | 0.00 | 0.14 | 0.00 | 93 | 1010.6 | |
| 20260904073022 | 55 | 0.0 | 0.0 | 0.01 | 0.14 | 0.00 | 93 | 1010.7 | |
| 20260904070017 | 56 | 0.0 | 0.0 | 0.02 | 0.14 | 0.14 | 93 | 1010.7 | |
| 20260904063016 | 56 | 0.0 | 0.0 | 0.01 | 0.13 | 0.13 | 93 | 1010.7 | |
| 20260904060016 | 55 | 0.0 | 0.0 | 0.00 | 0.12 | 0.12 | 93 | 1010.5 | |
| 20260904053021 | 56 | 0.0 | 0.0 | 0.00 | 0.12 | 0.12 | 93 | 1010.3 | |
| 20260904050020 | 56 | 0.0 | 0.0 | 0.00 | 0.12 | 0.12 | 93 | 1010.5 | |
| 20260904043016 | 56 | 0.0 | 0.0 | 0.00 | 0.12 | 0.12 | 93 | 1010.5 | |
| 20260904040020 | 56 | 0.0 | 0.0 | 0.00 | 0.12 | 0.12 | 92 | 1010.4 | |
| 20260904033015 | 56 | 0.0 | 0.0 | 0.00 | 0.12 | 0.12 | 92 | 1010.1 | |
| 20260904030017 | 56 | 0.0 | 0.0 | 0.01 | 0.12 | 0.12 | 91 | 1009.9 | |
| 20260904023017 | 57 | 0.0 | 0.0 | 0.07 | 0.12 | 0.12 | 89 | 1009.8 | |
| 20260904020022 | 59 | 270 | 1.0 | 5.0 | 0.06 | 0.11 | 0.11 | 85 | 1009.7 |
| 20260904013022 | 66 | 0.0 | 1.0 | 0.00 | 0.05 | 0.05 | 68 | 1009.5 | |
| 20260904010018 | 64 | 0.0 | 3.0 | 0.00 | 0.07 | 0.05 | 70 | 1009.5 | |
| 20260904003017 | 65 | 0.0 | 4.0 | 0.00 | 0.07 | 0.05 | 64 | 1009.3 | |
| 20260904000026 | 65 | 0.0 | 3.0 | 0.00 | 0.10 | 0.05 | 64 | 1009.3 | |
| 20260903233017 | 65 | 0.0 | 3.0 | 0.00 | 0.10 | 0.05 | 60 | 1009.3 | |
| 20260903230018 | 65 | 0.0 | 2.0 | 0.00 | 0.18 | 0.05 | 63 | 1009.4 | |
| 20260903223042 | 65 | 0.0 | 2.0 | 0.00 | 0.18 | 0.05 | 68 | 1009.6 | |
| 20260903220017 | 65 | 0.0 | 5.0 | 0.00 | 0.25 | 0.05 | 69 | 1009.6 | |
| 20260903213022 | 66 | 0.0 | 3.0 | 0.00 | 0.25 | 0.05 | 66 | 1009.6 | |
| 20260903210021 | 65 | 0.0 | 4.0 | 0.00 | 0.25 | 0.05 | 69 | 1009.5 |